Content
SEND FEEDBACK

Daily
Averages
Monthly
Summary
United States of America

HIGH BRIDGE, WISCONSIN


Home > North America > United States > Wisconsin
Elevation: 986 feet     Latitude: 46 25N     Longitude: 090 37W

WEATHER
 
SELECT A DAY
Number of Records: 184,452;   Date Range: 10/16/98 - 12/24/14
 
SHARE

PRINT THIS DATA

[ ← Previous Day ]
WEATHER ALMANAC - NOVEMBER 5, 2013
[ Next Day → ]
[ °C ]   °F
Weather ElementAverageHighLow
Temperature37 °F46.9 °F (1:53 pm)28.9 °F (5:53 am)
Dewpoint28.9 °F32 °F (7:53 pm)25 °F (3:53 pm)
Humidity75.1 %96 % (8:53 pm)48 % (11:53 am)
Barometer30.17 in30.24 in (11:53 am)30.06 in (10:09 pm)
Wind Speed5 mph11.5 mph (9:53 am)
Wind Gust18.4 mph (8:53 am)
Weather ElementAverage
Visibility8.8 mi
Wind DirectionSSW (191.2 °)

Weather ElementTotal
Precipitation0.13 in
Heating Degree Days27.1 (Base 65)
Averaged from 26 records on November 5, 2013
WEATHER CONDITIONS BREAKOUT
WIND DIRECTION BREAKOUT
WEATHER BY HOUR - NOVEMBER 5, 2013
[ °C ]   °F
Local TimeTemperatureDewpointHumidityBarometerVisibilityWind DirectionWind SpeedGust SpeedPrecipitationEventsConditions
1:53 AM33.1 °F30.0 °F89 %30.16 in10.0 miSSW (200°)3.5 mphClear
2:53 AM32.0 °F28.9 °F88 %30.17 in10.0 miSouth (190°)4.6 mphClear
3:53 AM30.9 °F28.0 °F89 %30.17 in10.0 miSW (220°)4.6 mphClear
4:53 AM30.9 °F28.0 °F89 %30.18 in10.0 miSouth (190°)4.6 mphClear
5:53 AM28.9 °F26.1 °F89 %30.19 in10.0 miWSW (240°)3.5 mphClear
6:53 AM30.0 °F26.1 °F85 %30.20 in10.0 miSW (230°)4.6 mphClear
7:53 AM33.1 °F28.9 °F85 %30.22 in10.0 miSSW (210°)8.1 mphClear
8:53 AM37.0 °F28.9 °F73 %30.23 in10.0 miSW (230°)10.4 mph18.4 mphClear
9:53 AM39.9 °F30.0 °F68 %30.23 in10.0 miWSW (240°)11.5 mphPartly Cloudy
10:53 AM43.0 °F28.9 °F58 %30.23 in10.0 miWSW (250°)9.2 mphClear
11:53 AM45.0 °F26.1 °F48 %30.24 in10.0 miSW (230°)10.4 mphMostly Cloudy
12:53 PM46.0 °F28.0 °F50 %30.22 in10.0 miWSW (250°)9.2 mphScattered Clouds
1:53 PM46.9 °F28.0 °F48 %30.20 in10.0 miWest (270°)9.2 mphMostly Cloudy
2:53 PM45.0 °F26.1 °F48 %30.18 in10.0 miWest (270°)9.2 mphOvercast
3:53 PM43.0 °F25.0 °F49 %30.17 in10.0 miWest (280°)6.9 mphOvercast
4:53 PM41.0 °F27.0 °F57 %30.16 in10.0 miCalmOvercast
5:53 PM39.9 °F26.1 °F58 %30.16 in10.0 miCalmOvercast
6:53 PM39.9 °F28.0 °F63 %30.16 in10.0 miWSW (250°)4.6 mphOvercast
7:23 PM39.2 °F30.2 °F70 %30.13 in10.0 miCalm0.00 inRainLight Rain
7:53 PM36.0 °F32.0 °F86 %30.17 in9.0 miWest (260°)4.6 mph0.01 inOvercast
8:40 PM33.8 °F32.0 °F93 %30.10 in2.0 miWNW (300°)3.5 mph0.03 inSnowLight Snow
8:53 PM33.1 °F32.0 °F96 %30.13 in4.0 miWNW (300°)3.5 mph0.04 inSnowLight Snow
9:53 PM33.1 °F32.0 °F96 %30.11 in7.0 miCalm0.04 inOvercast
10:09 PM33.8 °F32.0 °F93 %30.06 in6.0 miNorth (360°)4.6 mph0.00 inOvercast
10:53 PM34.0 °F32.0 °F92 %30.07 in9.0 miCalm0.00 inOvercast
11:53 PM34.0 °F32.0 °F92 %30.06 in3.0 miCalm0.01 inSnowLight Snow
Hourly data recorded from KASX, located miles away from High Bridge, Wisconsin







STORIES FROM OUR PARTNERS